{"data":{"norad_id":58900,"epoch":"2026-09-19T19:35:33.615456Z","epoch_age_seconds":73481,"freshness":"FRESH","line1":"1 58900U 24022B   26262.81636129  .00011769  00000+0  27553-3 0  9994","line2":"2 58900  97.3996 114.0796 0009932 125.4688 234.7488 15.42226981146841","mean_motion":15.42226981,"eccentricity":0.0009932,"inclination_deg":97.3996,"raan_deg":114.0796,"arg_perigee_deg":125.4688,"mean_anomaly_deg":234.7488,"bstar":0.00027553,"rev_number":14684,"period_min":93.371469812199,"perigee_km":432.76693093739,"apogee_km":446.30956104603,"semimajor_km":6817.6752459917,"source":"CELESTRAK","updated_at":"2026-09-20T09:00:34.870419Z"}}